Theta_e
286 286 286 286 286 286 286 286 286 286 285 285 285 285 285 285 285 285 285 285 285 285 285 285 285 285 285 285 285 286 286 287 287 288 288 288 288 287 287 287 287 287 287 287 287 287 288 288 288 288 288 288 288 288 288 288 288 289 289 289 289 289 289 290 290 290 291 291 291 291 291 291 292 292 293 293 293 293 293 294 294 294 294 294 295 295
286 286 286 286 286 286 286 285 285 285 285 285 285 285 285 285 285 285 285 285 285 285 285 285 285 285 285 285 286 286 287 287 287 287 287 287 286 286 286 286 286 286 287 287 287 287 287 287 287 287 287 287 287 287 288 288 288 288 288 288 288 289 289 289 290 290 290 291 291 291 291 291 291 291 292 292 292 293 293 293 293 294 294 294 294 294
286 286 286 285 285 285 285 285 285 285 285 285 285 285 285 285 285 285 285 285 285 285 285 285 285 285 286 286 286 286 286 286 286 286 286 286 286 286 286 286 286 286 287 287 287 287 287 286 286 286 286 287 287 287 287 288 288 288 288 288 288 289 289 289 289 290 290 290 290 291 291 291 291 291 291 291 292 292 292 293 293 293 293 293 293 293
285 285 285 285 285 285 285 285 285 285 284 285 285 285 285 285 285 285 285 285 285 285 285 285 286 286 286 286 286 285 285 285 285 285 285 285 285 286 286 286 286 286 286 286 286 286 286 286 286 286 286 286 287 287 287 288 288 288 288 288 289 289 289 289 289 289 289 290 290 290 291 291 291 291 291 291 291 292 292 292 293 293 293 293 293 293
285 285 285 285 285 285 285 285 285 285 285 285 285 285 285 285 285 285 285 285 285 285 286 286 286 286 285 285 284 284 284 284 285 285 285 285 285 285 285 285 285 285 285 285 285 285 285 285 286 286 286 286 287 287 287 288 288 288 288 288 289 289 289 289 289 289 290 290 290 290 291 291 291 291 291 291 292 292 292 292 293 293 293 293 293 293
285 285 285 285 285 285 285 285 285 285 285 285 286 286 286 286 285 285 285 285 286 286 286 286 285 285 284 284 284 284 284 284 284 285 285 284 284 284 284 284 284 284 284 284 285 285 285 285 285 286 286 286 287 287 287 288 288 288 288 288 288 289 289 289 289 290 290 290 290 290 290 290 290 290 290 291 291 291 292 292 292 293 293 293 293 293
285 285 285 285 285 285 285 285 285 285 286 286 286 286 286 286 285 286 286 286 286 285 285 285 284 284 284 284 284 284 284 284 284 284 283 283 283 283 283 283 284 284 284 284 284 285 285 285 286 286 286 287 287 287 287 288 288 288 288 288 288 289 289 289 289 290 290 290 290 289 289 289 289 289 289 289 290 290 291 291 292 292 292 292 292 292
285 285 285 285 285 285 285 285 285 286 286 286 286 286 286 285 286 286 285 285 285 285 284 284 284 284 284 283 283 283 283 283 283 283 282 282 283 283 283 283 283 284 284 284 285 285 285 286 286 286 286 287 287 287 287 287 288 288 288 288 288 288 288 288 288 288 289 289 288 288 288 288 288 288 288 288 289 289 290 290 290 291 291 291 291 291
285 285 285 285 285 285 285 286 286 286 286 286 286 286 286 285 285 285 285 284 284 284 284 284 284 283 283 283 283 282 282 282 282 282 282 282 282 283 283 283 284 284 284 284 285 285 285 285 286 286 286 286 286 287 287 287 287 287 287 287 287 287 287 287 287 287 287 287 287 287 288 287 287 288 288 288 288 288 289 289 289 290 290 290 290 291
285 285 285 285 286 286 286 286 287 286 286 286 286 285 285 285 285 284 284 284 284 283 283 283 283 283 282 282 282 282 282 282 282 282 283 283 283 283 283 284 284 284 284 284 285 285 285 285 285 285 285 286 286 286 286 286 286 286 286 286 286 286 286 286 286 286 286 287 287 287 287 287 287 287 287 287 288 288 288 288 289 289 289 289 290 290
285 285 286 286 286 286 287 287 287 286 286 285 285 285 284 284 284 284 284 283 283 283 283 282 282 282 282 282 282 282 282 282 282 282 283 283 283 283 284 284 284 284 284 284 284 284 284 284 284 284 285 285 285 285 285 285 285 285 285 285 285 285 285 286 286 286 286 286 286 286 286 286 287 287 287 287 287 288 288 288 288 289 289 289 289 290
286 286 286 287 287 287 287 287 286 286 285 285 284 284 284 284 283 283 283 283 283 282 282 282 282 282 282 282 282 282 282 282 283 283 283 283 283 283 283 283 283 283 283 283 283 283 283 283 283 283 283 283 283 284 284 284 284 284 284 284 285 285 285 285 285 285 285 285 285 286 286 286 286 287 287 287 287 288 288 288 288 289 289 289 290 290
286 287 287 287 287 287 286 286 285 285 284 284 284 284 283 283 283 283 282 282 282 282 282 282 282 282 282 282 282 283 283 283 283 283 283 283 283 283 283 283 282 282 282 282 282 282 282 282 282 283 283 283 283 283 283 283 283 283 284 284 284 284 284 284 284 285 285 285 285 285 286 286 286 287 287 287 288 288 288 288 289 289 289 290 290 291
287 287 287 287 287 286 286 285 285 284 284 283 283 283 283 282 282 282 282 282 282 282 282 282 282 282 283 283 283 283 283 283 283 283 283 283 283 282 282 282 282 282 282 282 282 282 282 282 282 282 282 282 282 282 282 283 283 283 283 284 284 284 284 284 284 285 285 285 285 286 286 286 287 287 287 288 288 288 288 289 289 289 289 290 290 291
288 287 287 286 286 285 285 284 284 283 283 283 283 282 282 282 282 282 282 282 282 282 282 283 283 283 283 283 284 284 284 283 283 283 283 282 282 282 282 282 282 282 282 282 282 282 282 282 282 282 282 282 282 282 282 283 283 283 283 283 284 284 284 284 284 285 285 285 286 286 286 287 287 287 287 288 288 288 288 288 289 289 289 290 290 291
287 286 285 285 285 284 284 283 283 283 282 282 282 282 282 282 282 282 282 282 282 283 283 283 283 284 284 284 284 284 283 283 283 282 282 282 282 282 282 282 282 282 282 282 282 282 282 282 282 282 282 282 282 282 283 283 283 283 283 283 283 284 284 284 285 285 285 285 286 286 286 286 287 287 287 287 287 288 288 288 289 289 290 290 291 291
285 285 284 284 284 283 283 283 282 282 282 282 282 282 282 282 282 282 282 283 283 283 283 284 284 284 284 284 284 283 283 283 283 282 282 282 282 282 282 282 282 282 282 282 282 282 282 282 282 282 282 282 282 282 283 283 283 283 283 283 283 284 284 284 284 285 285 285 285 286 286 286 286 287 287 287 288 288 288 289 289 290 290 291 291 291
284 284 284 283 283 283 282 282 282 282 282 282 282 282 282 282 283 283 283 283 284 284 284 284 284 284 284 284 283 283 283 283 282 282 283 282 282 282 282 282 282 282 282 282 282 282 282 282 282 282 282 282 282 282 282 282 282 283 283 283 283 284 284 284 284 285 285 285 286 286 286 286 287 287 287 288 288 289 289 289 290 290 290 290 290 290
283 283 283 282 282 282 282 282 282 282 282 282 282 283 283 283 283 284 284 284 284 284 284 284 284 283 283 283 283 283 282 283 283 283 283 282 282 282 282 282 282 282 282 282 282 282 282 282 282 282 282 282 282 282 282 282 282 282 283 283 283 284 284 284 285 285 285 285 286 286 286 287 287 287 287 288 288 289 289 289 289 289 289 289 289 289
283 282 282 282 282 282 282 282 282 282 282 283 283 283 283 284 284 284 284 284 284 284 283 283 283 283 283 283 283 283 282 283 282 282 282 282 282 282 282 282 282 282 282 282 282 282 282 281 281 281 281 281 281 281 282 282 282 283 283 283 284 284 284 284 285 285 285 286 286 286 286 287 287 287 287 288 288 288 288 288 288 288 288 288 288 289
282 282 282 282 282 282 282 282 282 282 283 283 283 284 284 284 284 284 284 284 283 283 283 283 283 283 283 283 283 283 282 282 282 282 282 282 282 282 282 282 282 282 282 282 281 281 281 281 281 281 281 281 281 282 282 282 282 283 283 283 283 284 284 284 285 285 285 285 286 286 286 286 287 287 287 287 287 288 288 288 288 288 288 289 289 289
282 282 282 282 282 282 282 282 283 283 283 284 284 284 285 284 284 283 283 283 283 283 283 283 283 283 283 283 283 282 282 282 282 282 282 282 282 282 282 282 282 281 281 281 281 281 281 281 281 281 281 281 281 282 282 282 282 283 283 283 283 284 284 284 284 285 285 285 285 286 286 286 286 286 287 287 287 287 287 287 288 288 288 288 289 289
282 282 282 282 283 283 283 283 284 284 284 284 284 284 284 283 283 283 283 283 283 283 283 283 283 283 283 282 282 282 282 282 282 282 282 282 282 282 281 281 281 281 281 281 281 281 281 281 281 281 281 281 281 282 282 282 282 282 283 283 283 283 284 284 284 284 285 285 285 285 286 286 286 286 286 287 287 287 287 287 288 288 288 288 288 289
282 283 283 283 284 284 284 285 285 285 284 284 283 283 283 283 283 283 283 283 283 283 283 283 283 282 282 282 282 282 282 282 282 281 282 282 282 282 281 281 281 281 281 281 281 281 281 281 281 281 281 281 281 281 282 282 282 282 283 283 283 283 283 284 284 284 284 285 285 285 286 286 286 286 287 287 287 287 288 288 288 288 288 288 289 289
283 284 284 284 285 285 285 285 284 284 283 283 283 283 283 283 283 283 283 283 283 283 283 282 282 282 282 282 282 282 281 281 281 281 281 281 281 281 281 281 281 281 281 281 281 281 281 281 281 281 281 281 281 281 282 282 282 282 282 283 283 283 283 284 284 284 285 285 285 286 286 286 286 287 287 287 287 288 288 288 288 288 289 289 289 289
284 285 285 285 285 284 284 283 283 283 283 283 283 283 283 283 283 283 283 283 283 282 282 282 282 282 282 282 281 281 281 281 281 281 281 281 281 281 281 281 281 281 281 281 281 281 281 281 281 281 281 281 281 281 281 282 282 282 282 283 283 283 284 284 284 285 285 285 285 285 286 286 286 286 286 286 287 287 287 287 288 288 288 288 289 289
284 284 284 283 283 282 282 282 282 282 282 282 282 283 283 283 283 283 283 282 282 282 282 282 282 282 281 281 281 281 281 281 281 281 281 281 281 281 281 281 281 281 281 281 281 281 281 281 281 281 281 281 281 281 281 281 282 282 282 283 283 283 284 284 284 284 284 284 284 284 285 285 285 285 286 286 286 286 287 287 287 287 288 288 288 288
283 283 282 282 281 281 281 281 282 282 282 282 282 282 282 283 283 282 282 282 282 282 282 282 282 282 281 281 281 281 281 281 281 281 281 281 281 281 281 281 281 281 281 281 281 281 281 281 281 281 281 281 281 281 281 281 282 282 282 282 283 283 283 283 283 283 283 284 284 284 284 285 285 285 286 286 286 286 287 287 287 287 288 288 288 288
282 281 281 281 281 281 281 281 281 281 281 281 282 282 282 282 282 282 282 282 282 281 281 281 282 281 281 281 281 281 281 281 281 281 281 281 281 281 281 281 281 281 281 281 281 281 281 281 281 281 281 281 281 281 281 281 281 281 282 282 282 282 282 282 283 283 283 284 284 284 285 285 285 286 286 286 287 287 287 287 288 288 288 288 288 288
281 280 280 280 280 280 280 280 280 280 281 281 282 282 282 282 282 282 281 281 281 281 281 281 281 281 281 281 281 281 281 281 281 281 281 281 281 281 281 281 281 281 281 281 281 281 281 281 281 281 281 281 281 281 281 281 281 281 281 281 281 282 282 282 282 283 283 284 284 284 285 285 285 286 286 286 286 287 287 287 287 288 288 288 288 288
280 280 280 280 280 280 280 280 280 281 281 281 281 281 281 281 281 281 281 281 281 281 281 281 281 281 281 281 281 281 281 281 281 281 281 281 281 281 281 281 281 281 281 281 281 281 281 281 281 281 281 281 281 281 281 281 281 281 281 281 281 281 282 282 283 283 283 284 284 284 284 285 285 285 285 285 286 286 286 286 287 287 287 287 287 287
280 280 280 280 280 280 280 280 281 281 281 281 281 281 281 281 281 281 281 281 281 281 281 281 281 281 281 281 281 281 281 281 281 281 281 281 281 281 281 281 281 281 281 281 281 281 281 281 281 281 281 281 281 281 281 281 281 281 281 281 282 282 282 282 283 283 283 283 283 284 284 284 284 284 285 285 285 285 285 286 286 286 286 286 287 287
280 280 280 280 280 280 281 281 281 281 281 281 281 280 280 280 280 280 280 280 280 280 280 280 280 280 280 280 280 280 280 280 280 281 281 281 281 281 281 281 281 281 281 281 281 281 281 281 281 281 281 281 281 281 281 281 281 281 282 282 282 282 282 282 282 282 283 283 283 283 283 283 283 284 284 284 284 285 285 285 285 286 286 286 286 286
280 280 280 280 280 281 281 281 281 281 280 280 280 280 280 280 280 280 280 280 280 280 280 280 280 280 280 280 280 280 280 280 281 281 281 281 281 281 281 281 281 281 281 281 281 281 281 281 281 281 281 281 281 281 281 281 282 282 282 282 282 282 282 282 282 282 282 282 282 282 282 282 282 283 283 283 284 284 284 285 285 285 286 286 286 286
280 280 280 281 281 281 281 281 280 280 280 280 280 280 280 280 280 280 280 280 280 280 280 280 280 280 280 280 280 280 280 280 280 280 281 281 281 281 281 281 281 281 281 281 281 281 281 281 281 281 281 281 281 281 282 282 282 282 282 282 282 282 282 282 282 282 282 282 282 282 282 282 282 282 282 283 283 283 284 284 285 285 285 286 286 286
280 280 280 281 280 280 280 280 280 280 280 280 280 280 280 280 280 280 280 280 280 280 280 280 280 280 280 280 280 280 280 280 280 280 281 281 281 281 281 281 281 281 281 281 281 281 281 281 281 281 281 282 282 282 282 282 282 282 282 282 282 282 282 282 282 282 282 282 282 282 282 282 282 282 282 282 283 283 284 284 285 285 286 286 286 286
280 280 280 280 280 280 280 280 280 280 280 280 280 280 280 280 280 280 280 280 280 280 280 280 280 280 280 280 280 280 280 280 280 280 281 280 280 280 281 281 281 281 281 281 281 281 281 281 281 281 281 281 281 282 282 282 282 282 282 282 282 282 282 281 282 281 281 282 282 282 282 282 282 283 283 283 283 284 284 284 285 285 285 286 286 286
280 280 280 280 280 280 280 280 280 280 280 280 280 280 280 280 280 280 280 280 280 280 280 280 280 280 280 280 280 280 280 280 280 280 280 280 281 281 281 281 281 281 281 281 281 281 281 281 281 281 281 281 281 282 282 282 282 282 282 282 282 282 282 282 282 282 282 282 282 282 282 283 283 283 283 283 283 284 284 284 284 284 285 285 286 286
280 280 280 280 280 280 279 279 279 279 279 279 279 280 280 280 280 280 280 280 280 280 280 280 280 280 280 280 280 280 280 280 280 281 281 280 280 280 280 280 281 281 281 281 281 281 281 281 281 281 281 281 281 282 281 281 281 281 281 282 282 282 282 282 282 282 282 282 282 282 283 283 283 283 283 283 283 283 284 284 284 284 285 285 285 286
280 280 279 279 279 279 279 279 279 279 279 279 279 279 279 279 280 280 280 280 280 280 280 280 280 280 280 280 280 280 280 280 280 280 281 280 281 281 280 280 280 281 281 281 281 281 281 281 281 281 281 281 281 281 281 281 281 281 282 282 282 282 282 282 282 282 282 282 282 283 283 283 283 283 284 284 284 284 284 285 285 285 285 285 285 286
279 279 279 279 279 279 279 279 279 279 279 279 279 279 279 279 279 280 280 280 280 280 280 280 280 280 280 280 280 280 280 280 280 281 281 281 281 281 281 281 281 281 281 281 281 281 281 281 281 281 281 281 281 281 281 281 281 281 282 282 282 282 282 282 282 282 283 283 283 283 283 284 284 284 285 285 285 285 285 286 286 286 286 286 286 286
279 279 279 279 279 279 279 279 279 279 279 279 279 279 279 279 279 280 280 280 280 280 280 280 280 280 280 280 280 280 281 281 281 281 281 281 281 281 281 281 281 281 281 281 281 281 281 281 281 280 280 280 280 280 280 280 281 281 281 282 282 282 282 283 283 283 283 284 284 284 284 284 285 285 285 285 286 286 286 287 287 287 287 287 287 287
279 279 279 279 279 279 279 279 279 279 279 279 279 279 279 279 279 280 280 280 280 280 280 280 280 280 280 280 280 281 281 281 281 281 281 281 281 281 281 281 281 281 281 281 281 281 280 280 280 280 280 280 280 280 280 280 281 281 281 282 282 282 283 283 284 284 284 284 284 284 285 285 285 286 286 286 287 287 287 288 288 288 288 289 289 289
279 279 279 279 279 279 279 279 279 279 279 279 279 279 279 279 279 280 280 280 280 280 280 280 280 280 280 280 281 281 281 281 281 281 281 281 281 281 281 281 281 281 281 280 280 280 280 280 280 280 280 280 280 280 280 280 281 281 282 282 282 283 283 284 284 284 284 284 285 285 286 286 286 287 287 287 288 288 288 289 289 289 290 290 290 290
278 278 278 278 278 278 278 279 279 279 279 279 279 279 279 279 279 280 280 280 280 280 280 280 280 280 280 281 281 281 281 281 281 281 281 281 282 282 281 281 281 281 280 280 280 280 280 280 280 280 280 280 280 280 280 280 281 281 282 283 283 283 283 284 284 284 284 285 285 286 287 287 288 288 288 288 289 289 289 290 290 290 290 290 290 290
278 278 278 278 278 278 278 279 279 279 279 279 279 279 279 279 279 280 280 280 280 280 280 280 280 280 280 281 281 281 281 281 281 281 282 282 281 281 281 281 281 281 281 280 280 280 280 280 280 280 280 280 280 280 281 281 281 281 282 283 283 283 284 284 284 285 285 286 287 287 288 288 289 289 289 289 290 290 290 290 290 290 290 290 290 290
278 278 278 278 278 278 278 278 279 279 279 279 279 279 279 279 280 280 280 280 280 280 280 280 280 280 280 281 281 281 281 281 282 282 282 282 281 281 281 281 281 281 281 280 280 280 280 280 280 280 280 280 280 281 281 282 282 282 283 283 283 284 284 285 285 286 287 287 288 288 289 289 289 289 289 290 290 290 290 290 290 290 290 291 291 291
278 278 278 278 278 278 278 278 279 279 279 279 279 279 279 280 280 280 280 280 280 280 280 280 280 280 280 281 281 281 281 282 282 282 282 282 281 281 281 281 281 281 281 281 281 281 281 281 281 281 280 280 280 281 282 282 282 283 283 283 284 284 285 285 286 287 288 288 289 289 289 290 289 290 290 290 290 290 290 290 290 291 291 291 291 291
278 278 278 278 278 278 278 278 278 279 279 279 279 279 279 280 280 280 280 280 280 280 280 280 280 280 281 281 281 281 282 282 282 282 282 281 281 281 281 281 281 281 281 281 281 281 281 282 282 282 282 281 281 281 281 282 283 283 284 284 284 285 286 286 287 287 288 289 289 290 290 290 290 290 290 290 290 290 290 290 291 291 291 291 291 291
278 278 278 278 278 278 278 278 278 279 279 279 279 279 279 279 280 280 280 280 280 280 280 280 280 280 281 281 281 281 282 282 282 282 282 282 282 281 281 281 281 281 281 281 281 281 282 282 283 283 283 284 283 283 282 283 284 284 285 285 285 286 286 286 287 288 289 289 290 290 290 290 290 290 290 290 290 290 290 291 291 291 291 291 291 291
278 278 278 278 278 278 278 278 278 279 279 279 279 279 279 279 279 279 280 280 280 280 280 280 280 281 281 281 281 282 282 282 282 282 282 282 282 281 281 281 281 281 281 281 281 281 282 282 283 283 284 285 285 285 285 285 285 285 285 285 286 286 286 287 287 288 289 289 289 289 290 290 290 290 290 290 290 290 290 291 291 291 291 291 291 291
Wind_Speed
26 27 27 27 28 29 29 28 28 29 31 31 30 30 30 30 30 31 31 31 31 32 32 32 31 31 31 30 29 29 29 30 31 33 34 36 37 38 39 39 40 40 41 41 41 41 41 42 42 42 42 42 41 41 40 40 40 40 39 39 38 38 38 38 38 38 38 38 38 38 38 38 38 37 38 39 38 37 36 35 35 35 34 34 34 35
26 27 27 27 27 29 30 29 28 28 30 31 31 31 31 31 31 31 31 31 31 31 31 31 30 29 29 28 28 28 30 32 33 35 36 37 38 39 39 40 40 40 40 41 41 41 41 42 42 42 42 42 41 41 40 40 40 39 38 38 37 37 37 37 37 37 37 37 37 37 37 38 38 38 38 39 39 38 37 37 36 36 36 35 35 36
26 27 28 27 27 27 29 30 30 29 29 31 31 31 31 32 32 31 31 31 31 30 30 29 28 28 28 29 29 30 31 33 34 36 37 38 38 39 39 40 40 40 41 41 41 42 42 42 42 42 41 41 40 40 39 39 39 38 38 37 37 37 37 37 37 37 37 36 36 36 37 37 38 38 38 38 38 38 38 38 38 38 37 37 36 36
25 27 28 28 27 27 28 29 30 30 30 30 30 31 31 31 31 30 30 30 30 29 28 28 28 28 28 28 29 31 32 33 35 36 37 38 38 39 39 40 40 41 41 42 42 42 42 41 41 40 40 39 39 39 39 38 38 38 38 38 38 38 38 38 37 37 37 37 37 37 37 37 37 37 37 38 38 38 38 38 38 38 37 37 36 36
26 26 28 28 28 28 29 29 30 30 30 29 29 29 30 29 29 29 28 28 27 27 26 26 26 26 27 28 30 31 32 34 35 36 37 38 39 39 40 41 41 41 41 41 41 41 40 39 39 38 38 38 38 38 38 38 38 38 39 39 39 39 39 38 38 37 37 37 37 37 37 37 37 37 37 37 37 37 37 37 37 37 37 36 36 35
27 27 28 29 29 30 30 30 30 29 29 28 27 27 27 27 27 26 25 25 24 25 26 26 27 28 29 30 31 32 33 34 35 37 37 38 39 40 40 40 40 40 39 39 39 38 38 38 38 38 38 38 38 38 38 39 39 39 39 39 38 38 38 38 38 37 37 37 37 36 36 36 36 36 36 36 36 37 37 37 36 36 36 36 36 36
28 28 28 29 30 31 31 30 28 27 26 26 26 25 24 24 24 23 23 24 24 25 27 28 29 29 30 31 31 32 33 35 35 36 37 37 38 38 38 38 38 37 37 37 37 37 37 37 37 38 38 38 38 38 39 39 39 39 38 38 37 37 37 37 38 37 36 36 36 36 36 37 37 37 37 37 37 37 37 37 37 37 36 36 36 36
27 29 29 29 30 31 30 28 26 24 24 24 23 23 23 22 22 22 24 26 26 27 28 29 30 31 31 32 32 33 33 34 34 35 35 35 35 35 35 35 35 35 35 35 36 36 36 37 37 37 38 38 38 38 38 38 38 38 38 37 37 37 37 37 37 37 36 36 36 37 37 38 38 38 38 38 38 38 38 37 37 37 37 37 37 37
26 28 29 29 28 27 27 25 24 22 22 21 20 19 21 22 23 26 27 28 28 29 29 30 32 33 33 33 33 33 33 33 33 34 34 34 33 33 33 33 33 34 34 34 35 35 36 36 36 37 37 37 37 37 37 37 37 37 37 37 37 37 37 37 37 37 37 37 37 38 38 38 38 38 38 38 38 38 38 38 37 37 37 37 38 38
27 27 27 27 26 24 22 22 22 21 20 19 19 19 20 23 26 28 29 30 31 31 30 31 32 33 34 34 33 32 32 32 33 33 33 33 33 33 32 32 32 32 33 33 34 35 35 35 35 36 36 36 37 37 37 37 37 37 37 37 37 37 37 37 37 37 37 37 38 38 38 38 38 37 37 37 37 37 37 37 38 38 38 38 38 39
28 28 26 24 23 21 19 20 20 20 19 20 21 23 24 25 26 27 28 30 32 33 32 32 32 32 32 32 32 32 31 31 31 31 31 30 30 30 30 30 30 31 32 33 33 34 34 35 35 35 36 36 36 36 36 36 36 36 36 36 36 36 37 37 37 37 37 37 37 37 37 37 36 36 36 36 36 36 36 36 37 37 37 38 38 39
26 25 22 21 19 19 18 19 19 19 19 21 23 25 27 28 28 28 27 28 30 32 33 33 32 32 31 31 31 31 30 30 29 29 28 27 26 26 26 27 28 29 30 31 32 33 33 34 34 34 35 35 35 35 35 36 36 36 36 36 36 37 37 37 37 37 37 37 37 36 36 36 35 35 35 35 35 35 35 36 36 36 37 37 38 38
23 20 18 18 17 17 17 18 19 21 22 23 23 23 25 29 30 29 28 29 30 31 32 32 32 32 31 30 29 28 28 27 27 26 26 25 25 25 26 26 27 28 30 30 31 32 32 32 33 34 34 34 35 35 35 35 35 35 36 36 36 36 36 36 36 36 36 36 36 35 35 35 35 35 35 35 35 35 35 35 35 36 36 36 37 37
18 17 16 15 15 16 18 20 21 22 24 25 26 26 28 30 30 29 29 29 30 31 32 31 32 32 30 28 27 25 25 24 24 25 25 26 26 26 26 27 28 30 31 31 31 32 32 32 32 32 33 33 34 34 34 34 34 35 35 35 35 36 36 36 36 36 36 36 35 35 35 35 35 35 36 36 36 36 36 36 36 36 36 36 37 37
14 14 13 12 15 19 22 24 24 25 27 28 29 29 29 29 29 28 27 27 29 31 31 30 31 31 29 26 24 22 21 21 22 24 26 27 28 28 27 27 29 31 31 31 30 31 31 30 30 30 31 31 31 31 32 33 33 34 34 35 35 36 36 36 36 36 36 36 36 36 36 36 36 36 36 36 36 36 36 36 36 36 36 37 37 38
16 16 14 15 19 23 26 27 27 27 28 29 29 28 28 27 27 27 26 26 28 28 27 25 23 23 24 26 24 21 20 21 23 25 26 29 30 29 27 27 29 30 30 30 30 30 30 29 29 29 29 30 30 31 32 33 33 34 35 36 36 36 37 37 37 37 37 37 37 36 36 36 36 36 36 36 36 36 36 36 37 37 37 38 39 39
21 21 20 21 22 25 28 28 28 28 28 29 28 28 27 27 27 27 26 26 25 23 21 16 11 8 13 23 26 24 22 22 24 26 28 29 30 30 28 28 29 30 31 30 30 30 29 29 28 28 28 28 29 31 32 34 35 35 36 37 37 37 37 37 37 37 37 37 37 36 36 36 36 36 36 36 36 36 37 37 38 38 38 38 39 39
24 24 24 23 23 26 28 28 28 28 28 28 28 29 28 28 27 27 26 25 22 19 17 14 10 7 7 10 21 29 26 25 26 27 28 29 31 31 29 28 28 30 30 30 30 29 28 27 27 28 29 30 32 33 35 36 37 37 37 37 37 37 37 37 37 37 37 37 37 37 37 36 36 36 36 37 37 37 38 38 38 38 38 38 38 38
25 26 25 24 25 27 27 27 27 27 27 28 28 29 28 28 27 25 23 22 20 18 17 15 15 15 15 19 26 31 29 27 27 27 26 28 31 31 29 27 27 28 29 29 29 28 27 28 29 31 32 33 34 35 36 36 37 37 37 36 36 36 36 36 36 36 36 37 37 37 37 37 37 37 37 37 38 38 38 38 38 38 38 38 38 38
27 27 26 26 26 27 27 27 27 28 28 29 29 28 26 25 23 20 18 17 20 22 23 21 21 22 24 27 30 32 30 29 27 26 26 27 29 30 28 26 26 27 28 29 29 28 28 29 31 32 32 33 34 34 35 35 35 35 35 35 35 36 36 36 36 37 37 37 37 37 37 37 37 37 37 38 38 38 38 38 38 38 38 38 38 38
28 28 28 27 27 26 26 27 29 29 30 29 27 25 22 20 19 18 19 22 25 26 26 23 23 25 27 28 31 32 31 29 26 25 25 25 26 28 27 25 24 26 27 29 29 29 29 29 30 31 30 30 31 32 33 33 34 34 35 35 36 36 36 37 37 37 37 37 37 38 38 38 38 38 38 38 38 38 38 38 38 38 38 38 38 38
28 28 29 29 28 27 27 28 29 30 28 27 23 20 18 19 22 24 27 28 27 25 24 24 25 28 30 31 32 32 30 27 24 23 21 16 20 25 26 25 24 25 26 28 28 27 28 28 29 29 29 30 31 32 33 34 35 35 36 36 36 36 37 37 37 37 37 38 38 38 38 38 38 38 38 38 38 38 38 38 38 38 38 38 38 39
28 29 29 29 28 27 27 27 27 26 25 24 23 23 23 25 26 27 27 26 25 24 25 26 28 30 31 30 31 30 28 25 23 22 19 12 15 23 26 25 24 25 26 27 28 28 28 28 28 28 29 31 32 33 34 34 35 35 36 36 36 37 37 37 37 37 37 37 38 38 38 38 38 38 38 38 38 38 38 38 38 38 38 38 39 39
28 28 28 27 26 26 26 26 26 27 27 27 28 28 28 28 27 26 26 25 25 26 26 27 28 28 28 28 28 27 26 24 23 21 19 13 15 22 27 26 25 25 27 29 29 29 29 29 30 30 30 31 31 32 33 34 34 35 35 36 36 36 36 36 37 37 37 37 37 37 38 38 38 38 38 38 38 38 38 38 38 38 39 39 39 40
27 26 25 25 25 26 27 29 30 31 31 30 30 29 28 28 28 28 28 27 26 25 24 23 22 23 24 26 26 25 25 23 22 20 19 16 19 24 27 25 24 24 27 30 30 29 29 29 29 29 28 29 30 32 32 33 34 34 35 35 35 35 35 35 35 35 36 36 36 36 37 37 37 37 37 38 38 38 38 38 38 38 39 39 39 40
26 25 25 26 27 29 30 31 32 32 31 30 29 28 28 28 28 27 25 24 23 21 20 17 15 17 22 23 23 23 24 23 22 21 20 18 19 22 25 24 23 24 26 29 29 28 28 29 30 31 30 30 31 31 32 32 33 33 33 33 33 33 33 34 34 35 35 35 36 36 37 37 37 37 37 37 38 38 38 38 38 38 38 39 39 39
24 24 25 27 29 30 31 31 31 31 30 30 29 28 28 28 27 24 22 21 21 20 18 11 10 13 17 17 19 22 25 25 23 22 21 20 18 18 21 23 23 24 26 28 29 29 28 29 30 30 30 30 30 30 29 29 29 29 30 31 31 32 33 34 35 35 36 36 37 37 37 37 37 37 37 37 38 38 38 38 38 38 39 39 39 38
21 23 26 28 29 29 30 30 29 29 29 29 28 28 28 26 23 20 19 21 22 21 18 12 10 10 9 9 16 24 26 25 23 21 20 18 15 15 21 24 25 25 25 27 29 30 29 28 27 27 27 27 27 27 26 26 27 28 30 31 32 33 34 35 35 36 36 36 36 36 36 36 36 37 37 37 38 38 38 38 38 38 39 38 37 36
24 26 27 28 28 28 28 28 28 28 27 27 27 26 25 23 21 20 21 23 22 20 18 15 13 11 10 14 20 24 25 24 22 21 20 18 16 17 24 25 25 25 24 24 26 28 27 26 24 23 24 25 25 25 25 26 27 29 31 32 33 33 34 34 34 34 34 34 34 35 35 35 36 36 36 37 37 37 38 38 38 37 37 36 35 34
28 28 28 28 27 27 27 27 27 26 26 25 25 24 23 22 21 21 22 22 21 19 18 18 17 16 14 14 14 14 16 21 23 22 22 18 16 18 24 24 24 25 23 19 16 16 19 22 23 23 22 24 25 25 26 27 28 28 30 31 31 31 31 31 32 32 33 33 33 34 34 35 35 35 36 36 37 37 37 38 37 36 35 34 33 32
28 28 27 27 27 26 26 26 25 25 24 23 23 22 21 20 20 21 21 21 20 19 19 19 19 19 17 10 6 5 6 20 26 25 23 19 17 18 22 22 23 25 23 17 9 5 10 13 20 26 24 25 25 26 27 28 27 27 28 28 28 28 29 29 30 31 32 32 33 33 34 34 35 35 36 36 37 37 37 38 37 36 34 32 31 30
27 26 26 26 26 26 25 24 24 23 23 22 22 21 21 21 21 21 21 20 20 20 20 21 21 21 20 14 10 8 9 22 28 27 25 20 19 21 23 22 23 24 24 22 16 9 7 6 15 27 27 27 27 27 27 27 27 27 28 28 27 28 29 29 29 30 30 31 31 32 33 33 34 35 36 36 37 37 37 38 37 36 33 32 31 30
25 25 25 25 25 24 24 23 23 23 22 22 22 22 21 21 21 21 20 21 20 20 20 21 21 21 21 19 18 18 21 26 28 28 26 22 20 21 23 23 23 23 24 24 22 18 12 9 15 24 28 28 27 27 27 27 26 26 26 26 27 27 28 29 28 29 29 30 31 31 32 32 33 34 35 35 36 36 37 37 37 36 35 32 31 31
25 25 24 24 24 23 23 23 23 23 22 22 22 22 22 22 21 21 21 22 22 22 22 22 21 21 21 19 19 22 26 28 29 28 27 24 21 20 24 23 22 22 22 21 21 21 17 18 19 20 21 27 29 28 27 26 26 25 25 25 26 27 27 28 29 29 30 30 30 30 31 31 32 32 33 34 34 34 35 35 36 36 35 34 32 31
24 23 23 23 23 23 23 23 23 23 22 22 22 22 22 22 22 22 23 23 23 23 23 23 22 22 22 20 19 20 25 29 31 30 28 25 23 22 23 22 22 22 19 18 17 15 12 17 20 19 15 18 24 27 27 26 25 25 25 25 26 26 27 28 28 28 29 29 29 29 30 30 31 31 31 32 32 33 33 34 35 36 36 36 35 33
22 22 22 22 22 22 23 23 23 23 22 22 22 22 23 23 24 24 24 25 25 25 25 24 25 25 25 24 23 23 27 31 32 32 30 28 26 23 22 22 24 23 19 18 17 14 10 11 17 20 16 12 14 21 26 27 26 25 25 25 25 26 27 28 27 27 28 28 28 29 30 30 30 31 31 32 32 33 34 35 36 36 37 38 38 37
21 21 21 22 22 22 22 23 23 22 22 22 23 23 24 24 25 25 25 26 26 26 26 26 26 26 26 26 27 28 30 31 33 33 33 31 29 26 23 23 25 24 21 19 18 17 14 11 12 13 12 9 9 13 22 27 28 26 25 25 25 26 27 28 28 27 27 27 28 29 29 29 30 30 31 32 32 33 34 34 35 36 37 37 38 39
20 21 21 22 22 22 22 22 22 22 23 23 24 24 25 26 26 26 26 26 26 27 27 26 26 27 28 28 29 31 32 33 34 35 35 34 32 29 25 24 24 24 22 21 20 19 16 12 11 11 10 9 12 18 24 26 26 26 27 27 27 26 27 28 28 27 27 27 27 28 29 29 29 30 30 31 31 30 31 32 32 33 33 34 35 37
20 20 21 22 22 22 22 22 23 23 23 24 24 24 25 26 26 26 25 25 25 26 26 26 26 27 29 30 31 31 32 32 33 33 33 32 31 29 27 24 23 24 24 23 22 21 18 13 10 9 10 9 13 20 26 26 25 26 27 28 28 27 26 26 26 26 26 27 27 28 29 29 30 29 29 30 29 28 28 29 29 30 30 29 30 31
20 20 21 22 22 22 22 23 23 24 24 25 25 25 25 25 25 26 25 25 25 25 26 26 26 27 28 28 28 29 29 30 31 30 30 30 30 29 27 24 23 23 23 22 22 21 20 17 16 15 15 12 11 14 21 24 26 27 27 23 22 24 27 27 27 27 28 28 28 28 28 29 29 28 28 28 28 27 27 27 28 29 28 27 26 26
20 21 21 22 23 23 23 23 24 25 25 25 25 24 24 24 24 25 25 25 25 25 25 25 25 26 27 27 27 27 27 27 27 27 27 28 28 28 26 25 24 23 23 22 22 21 20 19 19 20 20 18 18 18 21 23 26 27 25 20 19 24 29 29 28 28 28 28 28 28 28 28 28 28 28 28 28 28 28 28 28 28 29 28 27 24
20 21 22 23 23 24 24 24 24 24 24 24 23 23 23 23 24 24 25 25 26 26 26 25 24 25 26 25 25 25 25 25 25 25 26 26 26 26 25 25 24 23 23 22 21 21 21 21 20 20 20 19 18 15 16 22 27 27 24 23 24 26 27 28 27 26 26 26 27 28 27 27 27 27 28 28 28 29 30 29 29 29 29 28 27 26
20 21 22 23 24 24 25 25 24 24 24 23 23 23 23 23 23 23 24 24 25 26 26 25 24 23 23 24 25 26 25 25 24 24 24 24 24 23 23 23 24 24 23 21 21 21 22 22 21 20 21 21 19 16 13 19 24 26 25 25 24 20 13 20 26 28 27 27 28 29 28 27 27 27 27 28 28 29 29 29 29 28 28 28 27 27
21 22 23 23 24 24 24 24 24 24 23 23 23 23 24 24 24 24 24 24 24 25 24 24 23 22 21 22 23 25 25 24 24 23 23 22 21 21 21 22 23 23 23 21 20 20 21 21 21 21 22 21 19 18 17 18 21 23 24 25 24 19 13 18 24 29 28 28 28 28 28 28 28 28 27 27 27 27 27 27 28 28 28 28 28 28
21 22 23 23 23 23 23 24 24 24 23 23 23 23 24 24 24 23 23 23 24 24 23 23 21 19 19 20 22 23 24 24 23 23 22 22 22 22 22 21 22 22 22 21 21 20 19 19 20 22 22 21 19 18 17 18 19 21 24 25 25 24 24 27 28 27 26 26 27 28 30 30 29 27 24 23 23 23 24 25 25 26 27 28 28 27
21 22 23 23 23 23 23 24 24 24 24 23 23 23 24 24 24 23 23 23 23 23 23 22 20 17 16 18 20 21 22 23 23 23 23 23 24 24 23 21 21 21 21 22 23 23 22 21 22 22 21 20 19 19 19 19 18 18 21 24 24 24 24 26 26 26 26 25 26 28 30 30 27 23 20 20 21 22 23 24 24 24 26 27 27 27
21 22 23 23 23 23 23 24 24 24 24 24 24 24 24 23 23 23 23 23 22 22 22 22 20 18 17 18 19 19 19 20 22 23 24 24 24 24 23 22 22 21 21 21 22 23 24 24 24 23 20 16 14 15 18 19 18 18 19 22 23 23 22 24 25 27 27 26 26 27 29 28 23 19 19 20 20 21 22 23 24 25 25 26 26 26
22 22 22 23 23 23 23 24 24 24 24 24 24 24 24 23 23 22 22 23 22 22 21 21 19 18 18 19 19 19 18 19 20 22 23 23 24 24 23 23 23 23 22 21 21 21 22 23 23 23 22 17 12 11 15 18 19 19 20 21 21 20 21 23 25 27 28 27 28 30 29 25 21 19 19 18 17 18 21 22 23 24 25 25 25 25
21 22 22 22 22 23 23 23 23 23 23 24 25 25 25 25 24 23 22 22 22 21 20 19 18 18 17 18 19 20 20 20 20 21 21 22 23 23 24 24 24 24 23 22 21 21 20 20 19 18 17 18 17 15 16 18 20 21 21 21 20 19 20 22 25 27 27 27 29 30 29 26 23 22 20 15 11 13 19 21 22 23 24 24 24 24
21 21 22 22 22 22 23 23 23 23 23 24 24 25 25 25 25 23 22 22 21 20 20 19 18 17 17 17 18 19 19 19 19 20 21 21 22 22 22 23 24 23 23 21 21 20 20 18 17 15 13 12 14 15 16 17 18 20 20 20 20 20 20 22 24 26 27 27 28 29 29 27 25 24 21 15 12 11 15 18 21 24 25 26 25 25
22 22 22 22 22 22 23 23 23 23 23 23 24 24 24 24 24 24 23 21 21 20 20 20 19 18 17 17 18 18 19 18 18 19 20 21 21 21 20 20 20 19 17 14 14 15 14 12 11 12 13 13 11 11 12 15 17 17 17 19 21 21 21 22 24 26 27 27 27 27 26 25 24 24 22 18 13 10 11 13 18 23 26 28 28 28
Wind_Direction
301 303 305 306 306 305 304 304 303 303 302 301 301 299 298 297 295 293 293 293 293 294 294 292 290 288 286 285 284 283 283 284 285 286 286 287 287 287 287 287 287 287 286 286 286 286 286 287 287 288 288 289 289 288 288 287 286 285 284 284 284 284 283 283 282 281 280 279 278 277 277 276 276 275 274 274 273 272 272 270 269 267 265 264 263 263
303 304 304 305 305 304 303 303 302 300 299 299 298 298 297 295 294 293 293 293 293 294 294 293 290 288 286 284 283 283 284 285 286 287 287 287 287 287 287 287 287 286 286 286 286 287 288 288 289 289 289 289 288 288 287 286 285 284 283 283 283 282 282 281 281 279 278 278 278 277 277 276 276 275 275 274 274 273 273 273 272 271 269 268 268 268
305 305 304 305 304 302 301 302 301 298 296 295 295 296 295 294 293 293 292 293 293 294 293 291 289 287 285 284 284 284 285 286 287 287 288 288 288 287 287 287 287 287 287 288 289 289 289 289 289 289 289 288 287 286 286 285 285 284 284 283 283 282 282 280 279 279 278 278 278 278 277 277 276 276 275 275 274 274 273 273 273 272 271 270 269 269
303 303 303 304 303 300 298 298 298 297 295 294 294 294 294 293 292 291 291 292 293 293 292 290 288 287 286 285 285 285 286 286 287 288 288 288 288 288 289 289 289 289 290 290 290 290 289 289 288 288 288 287 286 286 285 285 284 284 283 283 283 282 281 280 279 278 278 278 277 277 277 277 277 276 276 276 275 274 273 272 271 270 270 269 268 267
300 300 301 302 301 299 297 296 295 295 295 294 294 294 294 293 291 291 291 292 293 293 292 291 289 287 286 286 286 286 287 288 288 289 290 290 290 291 291 291 291 291 290 290 289 289 288 288 287 287 286 286 285 285 284 284 283 283 282 282 281 281 280 279 278 277 277 276 275 275 276 277 277 277 277 277 276 275 273 271 270 269 268 267 267 267
297 297 297 297 296 296 296 295 295 295 295 295 295 294 293 292 292 292 293 294 294 294 293 292 291 289 288 288 288 289 290 290 291 292 292 292 292 292 292 291 291 290 289 289 288 288 287 287 286 286 285 285 284 284 283 283 282 282 281 281 280 280 280 279 278 277 276 276 275 276 276 277 278 278 279 279 279 277 275 273 271 270 269 268 268 268
296 295 295 294 293 293 293 293 293 294 294 295 296 296 295 294 294 295 295 295 295 294 293 292 292 291 291 291 292 293 294 294 294 294 294 293 292 292 291 290 289 289 288 288 287 287 286 286 286 285 285 284 284 284 283 283 283 282 282 281 281 281 281 281 280 280 280 279 279 279 279 279 279 278 278 278 278 278 277 275 273 271 270 270 269 269
295 295 294 292 292 292 292 291 291 291 292 294 297 299 300 300 299 298 297 296 295 295 295 296 296 296 296 296 297 297 297 296 296 294 293 292 291 289 289 289 288 288 288 287 287 287 286 286 286 286 285 285 285 285 285 285 285 284 284 284 284 285 284 284 284 283 284 283 283 282 281 280 279 278 277 276 276 276 277 276 275 273 272 271 270 269
292 292 292 291 290 290 290 290 290 291 293 296 299 303 305 304 303 301 300 298 298 298 299 300 301 300 300 299 299 298 297 295 293 292 291 290 289 288 288 288 288 288 287 287 287 287 287 287 286 286 286 286 286 286 286 286 286 286 286 287 286 286 286 285 285 285 284 284 283 282 281 280 279 277 276 275 274 274 274 274 274 272 271 270 269 268
288 288 288 288 286 284 284 288 292 297 301 303 304 303 303 302 303 303 303 302 302 303 303 303 302 301 301 300 299 297 295 293 291 289 288 288 288 288 288 288 288 288 287 287 287 287 287 287 287 287 287 287 287 287 286 286 286 286 285 285 285 285 284 284 284 283 283 282 281 280 279 279 278 277 276 275 273 272 272 271 271 270 269 268 267 266
288 287 285 285 285 283 282 288 297 304 308 308 306 303 301 301 303 305 306 306 306 306 305 303 301 300 300 299 298 296 294 292 291 289 288 287 287 287 288 287 287 287 288 288 288 288 288 287 287 287 287 286 286 286 285 285 285 284 284 283 283 283 283 283 283 282 282 281 280 279 279 278 277 277 275 274 273 271 270 269 268 267 267 266 265 264
284 285 284 285 288 291 294 299 305 309 310 309 307 305 304 305 306 307 307 306 306 305 304 302 300 298 297 297 296 296 294 292 291 290 289 289 289 289 290 289 289 289 289 288 288 287 287 287 286 286 286 285 285 284 284 284 283 283 282 282 282 282 283 283 283 282 282 281 280 279 278 278 277 276 274 273 271 270 268 267 266 265 264 264 263 263
280 282 285 291 297 303 308 310 310 310 309 308 307 307 307 308 308 308 305 303 302 302 301 300 299 297 296 295 294 294 293 291 290 290 290 290 291 292 293 291 290 289 289 289 288 287 286 286 285 285 284 284 284 283 283 282 282 282 282 282 282 282 283 283 282 282 281 280 279 278 277 276 275 274 273 272 270 269 268 266 265 264 264 263 262 262
286 293 300 306 310 312 312 311 310 308 307 307 306 306 306 307 307 306 303 300 299 299 299 297 297 296 297 296 295 293 292 290 290 291 291 291 291 293 293 291 290 289 289 288 286 285 285 285 284 283 282 282 281 281 280 280 281 281 282 282 282 282 282 282 281 280 279 278 277 277 276 275 274 273 273 272 271 270 269 267 266 265 264 264 263 262
305 313 316 315 312 310 309 309 308 306 305 305 305 305 304 304 304 303 301 299 299 299 299 297 296 296 297 297 297 295 293 292 293 293 293 292 293 293 293 291 290 289 289 287 285 284 284 284 282 280 279 278 277 277 278 280 280 281 282 282 282 282 282 281 281 280 279 278 277 277 276 275 275 274 273 273 272 271 270 268 267 266 265 264 263 262
320 319 314 310 307 306 306 306 305 304 304 304 304 303 302 301 300 299 298 298 298 299 299 298 297 297 298 300 300 300 299 298 297 296 295 294 294 295 294 292 290 289 288 287 286 285 285 283 281 279 278 277 278 279 280 281 282 282 283 283 283 283 282 282 281 280 280 279 278 277 277 276 275 275 274 273 272 271 269 268 266 265 264 264 264 263
316 312 308 306 305 304 304 304 303 303 302 302 301 300 298 296 295 296 296 296 297 298 298 297 296 296 302 304 304 305 305 304 301 298 296 295 295 295 295 293 290 289 288 287 286 286 285 283 281 279 279 279 280 282 283 283 284 284 284 284 284 283 283 282 281 280 280 279 278 277 277 276 275 274 273 272 271 270 268 267 267 266 266 265 265 266
309 307 305 304 303 303 303 303 303 302 301 301 299 298 296 293 292 293 294 295 296 296 297 296 296 296 300 304 304 305 307 306 302 299 296 295 295 296 296 293 290 288 288 287 286 286 284 282 281 281 281 282 283 284 284 284 285 285 285 284 284 283 282 282 281 280 279 278 277 277 276 275 274 273 272 271 270 270 270 270 270 270 270 269 269 268
305 304 303 302 301 301 301 301 300 300 299 298 298 297 295 293 293 292 292 294 296 297 298 299 299 299 299 299 301 303 306 306 302 299 296 294 295 296 296 294 290 287 287 286 286 286 284 283 282 282 283 283 284 284 285 285 285 285 284 284 283 283 282 281 280 279 279 278 277 276 275 275 274 273 273 272 272 272 272 272 272 272 272 271 270 269
302 301 300 299 300 299 298 297 297 296 296 295 295 293 292 292 293 294 295 297 300 301 300 299 298 298 298 297 298 301 304 305 302 298 294 293 293 295 296 294 290 288 287 287 287 287 285 284 282 282 281 282 283 284 285 285 285 284 284 284 283 283 282 282 281 280 280 279 278 278 277 276 276 275 275 275 274 274 274 273 273 272 271 270 269 268
299 298 297 296 296 296 295 294 294 293 293 292 291 291 291 295 299 302 304 304 303 302 300 297 295 296 297 297 298 300 302 302 299 295 294 292 292 294 295 294 291 289 287 288 288 288 287 285 284 283 282 282 283 284 285 286 286 286 285 285 284 284 283 283 282 281 281 280 280 279 279 278 278 277 276 276 275 275 274 273 273 272 271 270 269 267
295 294 294 294 293 291 290 290 290 291 292 292 293 296 300 305 306 306 304 303 302 299 297 295 294 294 295 295 295 297 299 298 294 292 293 291 291 293 296 296 293 290 289 290 291 290 289 287 286 285 284 286 287 287 287 287 287 286 286 285 285 284 283 283 282 282 282 281 280 280 279 279 278 278 277 276 276 275 274 273 273 272 271 269 268 267
292 292 293 293 292 290 288 288 290 294 298 301 303 304 305 305 303 302 301 300 298 296 295 293 293 293 293 293 293 295 296 295 292 291 290 287 290 294 298 298 296 292 290 292 294 295 293 291 289 287 287 288 288 288 288 287 287 286 286 285 285 284 284 283 283 282 282 281 280 280 279 278 277 277 276 275 274 274 273 272 271 270 269 268 267 266
292 292 292 292 292 292 293 295 299 304 307 307 305 303 302 300 299 298 297 296 295 294 294 294 294 294 294 294 295 296 297 297 296 294 291 288 290 294 298 299 297 294 293 295 296 297 296 293 291 290 288 288 288 288 287 287 287 286 286 286 285 285 284 284 283 282 281 281 279 278 278 277 276 275 275 274 273 272 272 271 270 269 268 267 266 265
293 293 293 294 296 299 301 303 305 305 305 304 303 302 302 300 299 298 296 295 294 293 293 293 294 296 297 299 299 299 300 301 299 295 291 290 291 293 297 298 297 295 295 296 298 297 296 294 292 291 289 288 288 289 288 287 287 286 286 286 285 285 285 284 283 282 281 280 279 279 279 278 278 277 277 276 275 274 273 272 271 270 269 268 267 266
294 295 297 300 302 304 304 303 303 302 303 303 303 303 303 303 302 300 298 297 296 296 296 295 294 296 299 301 300 300 302 303 302 297 292 291 292 294 296 298 297 294 295 297 298 298 297 296 295 294 292 290 288 288 286 285 285 285 286 286 286 286 286 285 285 284 284 284 283 283 282 282 281 281 280 279 278 277 275 274 273 272 271 270 270 269
298 301 303 305 305 305 304 304 303 303 303 303 303 302 303 303 302 300 297 298 300 300 299 296 294 297 300 300 300 302 304 305 303 299 294 291 291 293 296 299 299 297 297 298 299 299 297 296 295 294 293 290 287 285 284 283 284 286 288 288 288 288 288 288 288 287 287 286 285 285 284 283 282 281 279 278 277 276 275 274 273 272 272 271 271 269
306 308 308 307 306 305 305 304 304 304 304 303 303 303 303 303 301 299 298 300 301 300 298 295 295 297 298 298 301 303 304 304 302 301 299 296 292 292 297 301 302 301 300 300 300 299 297 295 293 291 290 290 289 288 287 287 290 291 291 291 290 290 289 289 288 288 287 286 284 283 282 281 280 278 277 276 275 274 273 272 271 271 271 270 269 267
312 311 309 308 307 306 306 305 305 304 303 303 303 303 303 301 298 296 296 299 299 298 296 296 297 296 296 299 301 302 302 302 303 305 307 303 296 294 299 303 303 303 303 303 303 302 299 297 295 293 292 294 295 295 294 293 293 293 292 291 290 289 288 288 287 287 286 285 284 282 281 280 279 278 277 276 275 274 273 272 272 271 270 269 267 264
314 313 311 310 309 308 307 306 305 304 303 303 303 304 303 300 296 293 294 296 296 295 295 297 298 298 299 300 300 300 300 303 307 310 312 307 299 298 302 303 304 305 306 306 305 303 301 301 300 300 298 299 299 298 297 295 293 292 291 290 289 288 287 287 287 287 286 285 285 284 283 282 281 280 279 279 278 277 276 275 274 273 272 270 267 265
314 313 312 311 310 309 308 307 306 305 305 304 305 305 304 301 297 295 294 294 293 292 293 295 297 298 299 299 298 296 298 304 307 311 311 306 299 298 302 303 303 304 306 305 304 301 303 304 305 305 304 303 301 299 298 297 295 293 292 291 290 288 288 289 289 289 288 287 287 286 285 284 283 282 281 280 279 278 277 276 275 274 272 271 268 265
313 312 311 311 311 310 310 309 308 308 308 307 307 307 305 303 300 298 296 294 292 290 291 293 294 295 295 293 291 290 293 300 304 307 309 304 299 298 301 301 302 303 303 302 299 296 300 304 307 307 307 305 303 301 299 298 296 294 294 293 291 290 291 292 292 291 290 289 288 287 286 284 283 282 281 279 278 277 276 275 274 272 270 268 266 264
312 311 311 311 310 310 310 310 310 310 310 310 309 308 306 305 302 300 297 295 293 291 290 291 293 293 293 291 289 289 292 296 301 305 307 304 300 299 301 301 301 301 302 300 298 295 292 293 302 305 306 305 304 303 301 300 298 296 295 294 293 292 293 293 293 292 291 290 289 287 286 284 282 281 280 279 278 277 275 274 272 270 268 266 264 262
311 311 310 311 311 311 312 312 312 312 312 311 310 309 308 306 304 302 300 298 296 294 291 290 290 291 292 292 291 292 294 296 300 303 306 304 300 298 300 300 301 301 302 301 300 298 294 295 298 302 304 305 304 304 302 301 300 298 296 294 294 294 293 294 293 292 291 290 288 287 285 284 282 281 280 279 278 276 275 273 271 269 266 263 261 260
311 311 312 313 314 314 314 314 314 313 313 311 311 310 309 308 306 304 303 301 299 296 293 290 288 287 288 289 291 292 295 297 300 303 304 301 298 297 298 299 300 301 301 300 300 300 298 297 299 300 302 304 304 304 303 302 301 300 298 295 294 293 292 292 291 291 290 289 287 285 284 283 282 281 280 279 278 276 275 274 271 269 266 263 261 259
312 312 314 315 316 316 315 315 315 314 313 312 311 311 310 309 308 306 304 303 301 299 296 292 289 287 285 285 285 286 290 294 297 300 300 298 296 295 295 296 298 299 299 298 299 299 296 296 299 301 300 299 302 304 305 305 304 303 300 298 295 294 292 291 290 288 288 287 285 284 284 283 282 281 281 280 279 278 276 275 273 270 268 265 262 259
313 314 315 316 317 316 315 315 314 314 313 312 312 311 310 310 308 306 305 303 302 300 299 296 293 290 287 284 283 284 286 289 293 295 296 295 293 291 290 292 295 297 296 296 297 298 297 296 298 299 296 293 295 302 305 307 308 306 303 301 299 296 294 292 290 288 286 285 284 283 284 283 282 282 281 281 281 280 278 276 274 272 269 267 264 261
315 315 315 316 316 316 314 314 313 313 312 312 311 311 309 309 308 307 305 303 302 301 301 298 296 294 293 290 287 287 288 288 290 292 294 293 292 290 288 289 291 293 292 291 292 294 296 297 298 299 297 295 296 300 303 306 307 306 304 303 301 298 295 294 292 290 288 285 285 284 284 284 283 282 282 282 281 280 278 277 275 273 271 268 265 262
315 315 315 315 315 315 314 313 312 312 312 311 310 309 308 307 308 307 306 304 303 302 301 299 297 296 296 294 292 291 291 291 292 293 294 294 292 290 289 289 289 291 291 289 289 289 291 291 291 294 297 298 301 302 303 304 304 304 305 306 305 302 298 297 296 294 291 288 287 286 286 286 285 283 282 282 280 278 276 275 275 274 272 270 267 264
315 314 314 314 313 313 312 311 311 311 311 310 309 309 308 308 309 309 308 307 306 305 304 302 300 298 297 296 295 295 295 295 295 295 295 295 294 292 290 288 288 289 290 290 288 287 287 287 288 290 293 295 298 301 301 301 301 303 306 307 307 305 303 302 299 296 293 290 288 286 286 286 286 284 282 280 278 275 274 273 273 274 272 268 265 263
314 314 313 313 313 312 311 310 310 311 311 311 310 310 310 310 311 312 311 311 310 309 309 308 305 303 302 301 299 299 299 299 298 297 298 298 297 296 292 289 289 289 289 290 289 288 288 288 289 291 292 292 293 294 295 296 298 300 303 302 300 300 301 300 299 296 295 293 291 289 287 287 286 284 283 281 279 277 276 274 272 272 272 268 263 259
314 312 312 312 312 312 312 311 311 311 312 311 311 310 311 312 312 312 312 313 313 313 313 312 310 308 307 305 305 305 305 305 303 302 302 302 301 299 296 293 291 290 290 291 291 291 291 291 290 289 289 290 291 292 293 294 297 299 299 298 298 300 302 302 301 299 297 296 295 293 290 288 287 285 284 283 282 282 281 278 276 273 271 268 264 260
313 311 311 311 311 312 312 313 313 313 313 313 312 311 312 312 312 312 312 311 311 312 313 312 310 308 307 307 309 311 311 310 309 308 307 306 306 304 302 300 298 296 294 293 293 294 294 293 290 287 286 287 288 288 290 293 296 298 298 298 300 302 306 306 306 305 302 299 297 295 293 290 288 287 286 286 286 286 285 283 280 278 274 271 268 265
312 311 311 312 312 313 314 314 314 314 314 313 312 312 313 313 313 312 311 310 309 309 310 310 310 308 307 308 311 313 314 313 313 313 312 312 312 311 309 306 304 301 298 294 292 294 295 295 292 290 289 288 286 285 286 289 293 296 298 299 300 299 296 298 301 302 302 300 299 297 295 293 292 291 290 289 288 287 287 286 285 284 283 281 277 272
313 313 313 314 315 315 315 314 314 314 314 313 312 312 314 314 313 313 312 310 309 309 309 310 310 310 310 311 312 313 315 316 316 317 317 318 319 318 315 311 308 306 302 297 293 291 291 291 292 293 293 291 287 283 283 286 289 293 297 300 301 298 294 296 298 299 299 299 299 299 299 299 297 295 293 291 290 290 290 289 288 287 288 287 284 280
315 315 315 315 315 315 314 314 314 314 314 314 313 313 314 315 314 313 312 310 309 309 310 311 310 309 309 310 313 314 316 317 319 320 321 321 321 321 320 317 314 311 307 302 297 293 289 286 286 289 292 292 290 286 283 284 285 290 296 301 303 302 301 301 301 301 301 300 300 301 304 304 303 299 295 295 297 297 295 294 292 290 291 290 288 285
316 316 315 315 315 314 314 315 315 315 315 314 314 315 315 315 315 314 313 312 311 310 311 312 310 307 306 308 311 313 314 316 318 320 321 322 323 324 323 322 320 317 312 306 302 298 294 289 286 283 282 283 287 289 288 287 288 291 296 301 303 305 305 306 306 307 307 305 304 307 310 310 308 304 302 302 302 302 301 300 299 298 297 295 292 289
316 315 315 314 314 314 314 315 316 315 315 314 314 315 316 316 315 315 313 313 313 312 312 312 310 308 307 308 309 311 312 315 316 318 320 321 323 324 325 325 325 323 320 315 310 305 301 299 293 285 276 269 270 281 287 291 293 296 298 301 303 304 306 308 310 312 313 313 313 315 316 315 313 309 308 307 307 309 309 306 305 305 304 301 298 294
314 314 314 313 313 313 313 314 315 315 314 313 314 316 317 317 316 315 313 313 313 312 311 310 310 309 309 309 310 311 314 316 316 317 318 321 323 325 326 328 328 328 327 325 323 321 318 316 311 300 284 267 261 265 277 286 294 299 302 305 306 307 309 312 315 317 318 319 320 322 322 320 317 315 313 310 309 311 313 313 312 312 312 310 306 302
314 313 313 313 312 311 311 312 313 313 312 313 313 314 315 317 317 316 314 314 313 312 311 309 308 308 308 309 310 312 315 317 317 318 319 320 323 325 326 328 330 331 332 332 334 335 335 332 329 325 315 289 269 264 271 284 296 303 308 311 313 314 315 316 318 321 322 323 324 325 325 324 324 323 321 316 311 310 315 319 320 320 319 319 317 313
314 314 313 312 311 311 311 311 311 311 311 311 312 312 313 314 315 316 315 314 314 313 311 309 308 308 308 309 310 313 316 317 317 317 318 320 322 324 324 326 329 332 333 335 337 339 340 339 336 334 331 327 314 296 290 295 302 308 311 316 320 321 320 320 322 324 326 326 327 327 328 329 329 329 327 324 318 313 317 322 324 325 325 326 326 324